LAN423 SCEL-SABE

Flight info

Callsign LAN423
Flight time N/A
Altitude 39000
Route ALBAL7C ALBAL UM424 ASADA ASADA8Q
Aircraft A320/M-SDE3FGHIRWY/LB1

Departure

Time 2026-04-30 22:26
Airport Comodoro Arturo Merino Benítez International Airport (SCEL)

Arrival

Time N/A
Airport Aeroparque Jorge Newbery (SABE)
Time Latitude Longitude Altitude Speed Heading
2026-04-30 21:28 -33.39601 -70.79533 1573 ft 0 kts 177°
2026-04-30 22:13 -33.39581 -70.79534 1577 ft 4 kts 176°
2026-04-30 22:13 -33.39554 -70.79536 1580 ft 4 kts 180°
2026-04-30 22:13 -33.39532 -70.79534 1580 ft 4 kts 203°
2026-04-30 22:13 -33.39515 -70.79515 1580 ft 4 kts 256°
2026-04-30 22:14 -33.39512 -70.79484 1580 ft 3 kts 267°
2026-04-30 22:14 -33.39512 -70.79480 1580 ft 0 kts 266°
2026-04-30 22:17 -33.39513 -70.79490 1580 ft 5 kts 266°
2026-04-30 22:17 -33.39521 -70.79653 1580 ft 12 kts 267°
2026-04-30 22:18 -33.39524 -70.79752 1580 ft 12 kts 266°
2026-04-30 22:18 -33.39529 -70.79953 1580 ft 12 kts 269°
2026-04-30 22:19 -33.39438 -70.80049 1583 ft 9 kts 358°
2026-04-30 22:19 -33.39353 -70.80053 1583 ft 17 kts 356°
2026-04-30 22:19 -33.39131 -70.80066 1583 ft 15 kts 356°
2026-04-30 22:20 -33.39036 -70.80072 1583 ft 13 kts 358°
2026-04-30 22:20 -33.38877 -70.80080 1584 ft 10 kts 357°
2026-04-30 22:20 -33.38811 -70.80084 1584 ft 9 kts 357°
2026-04-30 22:21 -33.38769 -70.80086 1583 ft 11 kts 357°
2026-04-30 22:21 -33.38636 -70.80094 1583 ft 15 kts 357°
2026-04-30 22:21 -33.38539 -70.80099 1584 ft 13 kts 358°
2026-04-30 22:21 -33.38481 -70.80102 1583 ft 12 kts 358°
2026-04-30 22:22 -33.38400 -70.80106 1583 ft 11 kts 357°
2026-04-30 22:22 -33.38327 -70.80110 1583 ft 10 kts 357°
2026-04-30 22:22 -33.38234 -70.80115 1583 ft 14 kts 357°
2026-04-30 22:22 -33.38146 -70.80120 1583 ft 13 kts 357°
2026-04-30 22:23 -33.38016 -70.80127 1583 ft 22 kts 358°
2026-04-30 22:23 -33.37856 -70.80135 1582 ft 23 kts 357°
2026-04-30 22:23 -33.37690 -70.80144 1583 ft 24 kts 358°
2026-04-30 22:23 -33.37519 -70.80152 1583 ft 26 kts 358°
2026-04-30 22:24 -33.37369 -70.80160 1583 ft 17 kts 357°
2026-04-30 22:24 -33.37262 -70.80166 1584 ft 15 kts 357°
2026-04-30 22:24 -33.37165 -70.80172 1583 ft 13 kts 357°
2026-04-30 22:24 -33.37108 -70.80229 1585 ft 10 kts 295°
2026-04-30 22:25 -33.37103 -70.80288 1587 ft 7 kts 261°
2026-04-30 22:25 -33.37148 -70.80364 1592 ft 13 kts 210°
2026-04-30 22:25 -33.37217 -70.80373 1591 ft 3 kts 177°
2026-04-30 22:25 -33.37240 -70.80372 1591 ft 8 kts 177°
2026-04-30 22:26 -33.38292 -70.80316 1591 ft 138 kts 178°
2026-04-30 22:26 -33.39378 -70.80246 1861 ft 161 kts 179°
2026-04-30 22:26 -33.40517 -70.80188 2499 ft 168 kts 180°
2026-04-30 22:27 -33.41723 -70.80133 3054 ft 178 kts 179°
2026-04-30 22:27 -33.42997 -70.80074 3504 ft 192 kts 178°
2026-04-30 22:27 -33.45953 -70.79929 4266 ft 237 kts 177°
2026-04-30 22:28 -33.49541 -70.79722 5400 ft 272 kts 177°
2026-04-30 22:28 -33.51450 -70.79614 6214 ft 280 kts 178°
2026-04-30 22:29 -33.57544 -70.79064 8537 ft 303 kts 175°
2026-04-30 22:29 -33.59663 -70.78787 9319 ft 310 kts 175°
2026-04-30 22:30 -33.69111 -70.77580 11137 ft 377 kts 176°
2026-04-30 22:31 -33.77072 -70.76541 13355 ft 390 kts 170°
2026-04-30 22:32 -33.84034 -70.71427 15307 ft 406 kts 128°
2026-04-30 22:32 -33.86707 -70.65419 16529 ft 413 kts 113°
2026-04-30 22:33 -33.90356 -70.55850 18342 ft 426 kts 114°
2026-04-30 22:33 -33.92854 -70.49303 19331 ft 435 kts 114°
2026-04-30 22:34 -33.96681 -70.39243 20779 ft 449 kts 114°
2026-04-30 22:35 -33.99292 -70.32352 21824 ft 456 kts 115°
2026-04-30 22:36 -34.04625 -70.18249 23616 ft 471 kts 115°
2026-04-30 22:36 -34.05986 -70.14634 23968 ft 475 kts 115°
2026-04-30 22:37 -34.10117 -70.03646 25130 ft 484 kts 116°
2026-04-30 22:37 -34.11509 -69.99944 25527 ft 485 kts 115°
2026-04-30 22:37 -34.14304 -69.92490 26266 ft 490 kts 116°
2026-04-30 22:38 -34.17112 -69.84961 27024 ft 494 kts 115°
2026-04-30 22:38 -34.18998 -69.76951 27713 ft 498 kts 98°
2026-04-30 22:39 -34.19550 -69.72814 28078 ft 501 kts 99°
2026-04-30 22:39 -34.21279 -69.60298 28998 ft 507 kts 99°
2026-04-30 22:40 -34.23022 -69.47712 30307 ft 500 kts 99°
2026-04-30 22:41 -34.24692 -69.35398 31554 ft 493 kts 98°
2026-04-30 22:41 -34.25784 -69.27246 32247 ft 491 kts 98°
2026-04-30 22:42 -34.27952 -69.10999 33463 ft 492 kts 98°
2026-04-30 22:43 -34.29041 -69.02825 34099 ft 492 kts 98°
2026-04-30 22:43 -34.30115 -68.94672 34678 ft 491 kts 97°
2026-04-30 22:44 -34.31167 -68.86574 35240 ft 490 kts 97°
2026-04-30 22:45 -34.33269 -68.70241 36129 ft 492 kts 97°
2026-04-30 22:45 -34.34329 -68.62063 36595 ft 492 kts 97°
2026-04-30 22:46 -34.35378 -68.53874 37006 ft 492 kts 96°
2026-04-30 22:47 -34.37453 -68.37428 37713 ft 495 kts 96°
2026-04-30 22:47 -34.38491 -68.29180 38114 ft 496 kts 96°
2026-04-30 22:48 -34.39518 -68.20930 38484 ft 496 kts 96°
2026-04-30 22:49 -34.41051 -68.08539 38784 ft 499 kts 96°
2026-04-30 22:49 -34.42579 -67.96067 38785 ft 499 kts 96°
2026-04-30 22:50 -34.44594 -67.79418 38529 ft 501 kts 96°
2026-04-30 22:51 -34.45559 -67.71111 37972 ft 493 kts 96°
2026-04-30 22:51 -34.46508 -67.62908 38515 ft 490 kts 96°
2026-04-30 22:52 -34.46983 -67.58829 38709 ft 489 kts 96°
2026-04-30 22:53 -34.48902 -67.42278 38783 ft 504 kts 96°
2026-04-30 22:53 -34.50342 -67.29539 38779 ft 511 kts 96°
2026-04-30 22:55 -34.52738 -67.08121 37931 ft 511 kts 96°
2026-04-30 22:55 -34.53708 -66.99630 38472 ft 507 kts 96°
2026-04-30 22:56 -34.54646 -66.91179 38767 ft 507 kts 96°
2026-04-30 22:57 -34.56932 -66.69717 38794 ft 516 kts 96°
2026-04-30 22:58 -34.58794 -66.52450 38780 ft 515 kts 96°
2026-04-30 22:59 -34.61519 -66.26571 38827 ft 516 kts 96°